Regional Weather Roundup
Issued by NWS Nashville, TN

Home | Current Version | Previous Version | Text Only | Print | Product List | Glossary On
Versions: 1 2 3 4 5 6 7 8 9 10 11 12 13 14 15 16 17 18 19 20 21 22 23 24 25 26 27 28 29 30 31 32 33 34 35 36 37 38 39 40 41 42 43 44 45 46 47 48 49 50
000
ASUS44 KOHX 280910
RWROHX
MIDDLE TENNESSEE HOURLY WEATHER ROUNDUP
NATIONAL WEATHER SERVICE NASHVILLE TN
400 AM CDT SUN MAY 28 2017

NOTE: "FAIR" INDICATES FEW OR NO CLOUDS BELOW 12,000 FEET WITH
NO SIGNIFICANT WEATHER AND/OR OBSTRUCTIONS TO VISIBILITY.

* THESE REPORTS ARE NOT UNDER NWS QUALITY CONTROL AND MAY NOT
  REPORT WEATHER SUCH AS PRECIPITATION AND FOG.


TNZ005>011-023>034-057-059-062>066-078-080-281000
...NORTHERN MIDDLE TENNESSEE...

CITY           SKY/WX    TMP DP  RH WIND       PRES   REMARKS
CLARKSVILLE    LGT RAIN  64  60  87 S17       29.80F
CROSSVILLE     LGT RAIN  61  59  93 W7        29.95F
GALLATIN       PTCLDY    64  63  94 CALM      29.85F
DICKSON          N/A     61  61 100 W8        29.89R
LEBANON        CLOUDY    63  62  96 S14       29.78F
NASHVILLE      CLOUDY    65  62  90 SW10      29.84F
PORTLAND       PTCLDY    64  63  94 SW9       29.82S
SMYRNA         CLOUDY    64  63  96 S13G20    29.84F
SPRINGFIELD    MOCLDY    63  63 100 SW8       29.85R
WEST NASHVILLE CLOUDY    64  63  94 SW8       29.84R
$$
TNZ056-058-060-061-075>077-079-093>097-281000
...SOUTHERN MIDDLE TENNESSEE...

CITY           SKY/WX    TMP DP  RH WIND       PRES   REMARKS
COLUMBIA       FOG       64  63  94 S7        29.88F VSB 1
MCMINNVILLE    CLOUDY    63  63 100 CALM      29.90F
MURFREESBORO   CLOUDY    64  64 100 S10       29.85F
PULASKI        CLOUDY    64  63  94 W6G15     29.92R
SHELBYVILLE    PTCLDY    63  63 100 CALM      29.89S
TULLAHOMA      CLOUDY    63  63 100 SE9       29.89F
WINCHESTER     MOCLDY    63  63 100 SE7         N/A
$$


...KEY TO REMARKS...
VSB - VISIBILITY IN MILES
WCI - WIND CHILL INDEX
HX  - HEAT INDEX




USA.gov is the U.S. government's official web portal to all federal, state and local government web resources and services.